Location: Lecco
(45.8566°N, 9.3977°E)
Time: 08:34:50
(UTC+02:00)

Altair - Pass Details

Date: 23 August 2020
Orbit: 1501 x 1682 km, 47.2° (Epoch: 25 September)

Event Time Altitude Azimuth Distance (km) Brightness Sun altitude
Rises 01:37:39 0° 246° (WSW) 4,878 - -32.7°
Reaches altitude 10° 01:40:50 10° 246° (WSW) 3,872 - -32.7°
Exits shadow 01:48:21 58° 238° (WSW) 1,828 7.6 -32.6°
Maximum altitude 01:50:43 83° 161° (SSE) 1,608 7.3 -32.5°
Drops below altitude 10° 02:00:13 10° 75° (ENE) 3,734 9.8 -32.2°
Sets 02:03:14 0° 74° (ENE) 4,698 10.4 -32.2°
